Location: *
(50.8667°S, 179.2667°W)
Time: 05:43:26
(UTC+00:00)

Cosmos 1656 - Pass Details

Date: 02 October 2023
Orbit: 797 x 849 km, 71.1° (Epoch: 10 December)

Event Time Altitude Azimuth Distance (km) Brightness Sun altitude
Exits shadow 15:12:50 31° 268° (W) 1,469 4.5 -20.0°
Maximum altitude 15:14:40 39° 229° (SW) 1,272 4.5 -19.8°
Drops below altitude 10° 15:20:05 10° 160° (SSE) 2,516 6.9 -19.0°
Sets 15:22:45 0° 152° (SSE) 3,456 7.9 -18.7°
